Wind_Speed
3 4 7 11 9 4 6 8 12 7 4 7 10 9 15 16 14 12 11 12 8 10 11 10 11 11 9 4 2 1 2 5 10 16 19 21 24 29 20 19 21 20 23
3 3 6 8 5 2 5 9 4 8 3 4 9 12 17 17 16 15 12 10 10 8 8 12 14 14 13 11 8 5 4 3 2 7 10 14 20 23 22 20 20 18 20
3 6 6 6 6 8 5 5 6 6 5 1 8 12 17 18 16 12 14 12 11 10 11 12 11 11 12 13 12 10 7 2 3 7 8 11 14 16 18 18 20 23 20
4 7 7 10 7 5 6 9 9 9 8 1 11 11 13 15 15 16 15 12 12 13 12 11 4 7 6 9 11 11 10 4 2 3 6 10 13 17 20 19 21 23 28
4 10 10 12 7 4 7 10 10 11 9 3 8 14 12 14 16 16 15 13 13 13 11 8 9 7 6 4 7 9 10 9 7 6 5 6 11 15 17 18 19 22 25
4 6 8 10 11 5 9 12 13 13 10 5 4 13 7 11 17 17 17 15 15 15 13 11 9 7 5 4 5 5 6 8 9 6 6 7 8 9 15 18 22 22 23
3 5 7 10 9 8 8 10 9 13 14 10 4 3 4 6 14 17 18 18 16 16 15 13 9 8 8 4 3 4 6 10 7 6 6 7 7 8 10 15 21 22 22
2 0 5 7 5 3 6 9 10 10 10 12 4 4 2 3 4 16 19 20 18 19 18 17 11 9 10 6 1 3 7 8 7 7 7 7 7 9 9 10 17 23 26
4 5 2 4 6 6 7 9 10 11 7 8 16 3 3 1 2 7 13 11 18 20 20 20 15 13 10 5 2 5 9 9 9 9 9 7 7 9 8 8 13 20 25
6 8 3 3 4 6 8 8 9 10 8 10 7 15 10 2 2 2 4 3 6 18 23 21 18 17 10 4 2 5 8 9 11 10 10 9 9 9 9 6 10 16 24
10 6 5 3 3 5 8 7 7 9 10 10 10 4 4 9 5 3 2 5 8 10 15 18 19 19 10 3 6 6 8 8 13 13 11 9 9 8 6 5 7 14 20
6 5 7 4 3 4 6 6 6 8 10 10 11 9 8 3 1 3 1 3 3 13 9 14 18 15 7 4 2 4 6 11 14 14 13 10 9 8 7 8 1 12 18
10 12 10 6 5 6 5 5 5 7 9 11 8 8 8 6 4 3 1 1 2 3 7 12 14 11 2 3 2 4 9 13 14 14 14 11 9 9 7 8 7 11 18
13 14 10 6 7 7 5 5 5 5 6 8 6 6 6 7 6 5 3 2 1 5 3 5 9 8 4 4 4 6 11 14 14 15 13 11 10 8 7 9 8 5 19
6 12 10 8 4 5 5 4 5 5 4 6 5 4 7 10 9 8 9 5 2 2 1 5 4 7 6 3 4 8 14 14 15 15 13 12 11 11 10 12 14 18 16
11 14 12 9 5 4 6 5 6 6 4 6 5 5 7 9 9 7 9 8 7 5 2 2 3 10 8 6 5 8 13 14 17 16 14 16 14 13 15 18 23 34 38
12 17 16 11 7 3 5 7 7 7 5 6 4 4 7 8 10 10 6 3 5 7 8 6 11 9 8 7 6 7 11 13 14 17 17 18 20 15 18 24 29 16 16
14 11 15 13 9 7 6 9 7 10 8 7 6 5 7 8 9 8 7 5 2 6 20 13 10 5 7 8 7 6 10 11 14 15 16 18 20 16 19 28 31 10 23
22 20 16 16 15 12 10 9 10 9 11 7 7 7 7 7 8 7 7 7 13 17 16 15 9 8 10 10 8 7 11 12 16 15 18 19 20 18 20 25 35 29 27
26 24 23 21 18 15 12 11 13 13 12 10 9 8 7 7 7 8 10 14 17 18 16 15 12 10 8 7 6 7 14 14 16 16 19 20 22 23 23 27 36 45 39
24 24 21 21 20 18 16 14 15 16 15 13 11 10 8 13 11 10 12 15 13 13 14 14 11 9 8 6 5 6 13 17 17 18 22 25 26 26 26 24 30 38 49
24 24 24 22 23 23 18 18 17 20 19 15 16 14 14 16 16 16 17 13 8 8 11 12 9 7 6 8 10 10 5 2 4 18 19 24 27 28 27 25 24 32 38
25 26 25 23 23 23 20 19 17 22 22 18 17 19 20 19 19 18 17 16 14 13 9 8 11 8 8 7 6 6 4 13 9 8 11 19 26 26 26 25 24 25 30
27 27 26 24 24 24 21 19 17 21 23 18 18 20 22 22 20 17 16 15 14 14 14 11 8 6 6 8 5 8 20 18 15 13 13 11 19 26 23 24 24 24 26
28 28 28 26 27 23 19 18 18 23 23 20 19 20 22 22 20 17 17 17 15 14 12 11 9 8 9 8 7 16 16 18 9 12 15 13 13 24 24 23 22 21 24
25 24 25 26 24 21 17 17 20 26 25 23 21 21 21 20 21 18 15 16 16 13 11 11 12 11 8 8 7 5 15 13 15 6 7 7 8 5 6 17 20 21 22
Wind_Direction
51 0 345 333 336 340 348 345 348 342 340 157 159 153 156 151 155 144 136 140 112 75 43 67 74 66 62 88 143 212 227 246 240 234 229 223 219 211 223 216 215 220 216
65 6 356 343 350 352 25 9 29 37 50 196 167 168 163 165 160 156 145 125 117 88 84 92 82 73 68 67 64 60 74 67 224 210 219 224 225 230 223 225 227 221 214
6 3 356 359 6 355 349 8 9 34 35 263 179 173 174 173 168 158 148 142 140 119 124 101 70 72 70 63 51 40 32 34 230 244 246 241 236 227 227 234 231 232 222
21 65 24 13 352 40 25 360 11 12 16 187 194 182 175 182 179 168 159 157 145 136 132 116 119 105 75 57 62 43 26 344 321 273 272 253 251 246 241 242 241 234 229
62 41 41 30 37 106 10 16 19 8 33 52 217 203 181 191 188 179 175 164 159 157 153 147 144 124 109 89 58 34 23 11 326 281 278 282 254 241 240 237 238 235 231
54 53 56 35 35 52 19 17 20 31 37 7 247 225 216 201 194 193 189 180 176 175 169 165 156 139 149 125 62 25 10 1 345 319 287 282 273 262 245 236 227 222 220
62 69 52 39 42 38 29 15 45 49 34 24 21 55 160 176 201 200 203 196 189 189 185 177 176 162 157 179 114 12 352 355 353 330 318 282 285 280 267 242 229 222 219
130 153 45 44 46 5 47 39 50 59 49 38 37 67 41 85 198 208 212 207 203 201 198 190 193 184 189 194 82 30 7 7 5 352 340 320 281 293 288 255 234 223 215
222 220 75 64 83 52 58 52 53 48 47 61 45 96 70 254 333 211 218 217 226 216 207 198 199 207 195 174 317 6 360 1 6 358 348 333 325 305 302 263 237 226 217
218 202 165 105 67 66 60 69 60 52 43 48 77 63 83 109 161 333 115 48 268 236 220 202 203 198 183 172 38 12 5 0 11 12 359 340 330 319 303 292 226 218 208
221 214 195 174 139 68 67 81 67 52 54 76 66 83 88 66 80 107 276 324 350 0 209 193 202 184 158 81 5 21 23 7 16 16 6 360 337 324 322 334 234 213 207
233 223 204 198 164 106 73 84 76 63 65 91 87 83 81 100 47 75 76 287 348 53 129 182 169 163 149 338 57 48 36 25 14 14 8 6 354 353 7 15 336 219 209
275 228 203 209 193 155 113 91 89 84 77 84 88 94 97 90 94 88 84 355 43 85 98 140 153 152 173 113 115 67 37 26 19 15 14 13 0 357 353 12 348 222 219
287 197 209 213 196 176 137 120 114 100 95 89 82 114 90 84 89 91 98 111 18 42 104 127 154 174 146 111 83 48 44 32 21 17 19 10 15 3 329 313 319 311 223
253 199 209 204 188 164 168 149 134 125 113 88 71 108 107 87 97 82 76 59 168 124 17 172 160 197 180 143 56 56 44 33 25 21 20 16 23 9 351 336 316 295 259
216 220 215 196 189 186 184 179 150 149 135 116 95 94 104 89 99 91 71 65 56 126 137 155 145 180 178 138 87 53 45 39 30 25 26 18 26 14 12 2 331 311 262
223 215 208 214 206 229 204 196 170 170 159 142 108 104 93 101 96 95 83 62 60 118 121 108 144 160 159 142 97 56 38 30 37 29 31 22 32 38 24 10 356 331 155
226 217 219 232 242 231 229 219 195 191 183 165 145 138 122 112 94 94 70 68 20 169 139 131 140 136 139 141 117 73 50 38 45 29 32 30 38 46 40 27 18 155 153
240 237 237 241 251 248 234 236 221 209 192 185 162 156 140 129 108 88 79 93 109 117 134 136 136 129 135 136 111 70 62 55 47 39 41 42 41 61 54 39 30 116 144
240 241 242 244 249 248 238 239 213 200 187 177 172 162 155 145 117 108 106 118 124 122 125 125 124 132 148 141 113 94 80 65 53 50 48 51 50 61 61 52 46 69 132
237 240 238 241 243 245 239 233 213 202 188 177 170 160 147 131 117 108 117 129 133 135 124 128 129 124 145 160 126 125 100 76 55 49 47 54 54 57 56 63 61 63 81
236 241 240 240 244 244 242 233 225 204 194 187 169 157 145 131 119 111 107 101 95 135 137 136 135 139 122 146 136 140 117 53 42 49 49 53 63 58 57 63 75 75 75
234 237 241 242 244 246 241 236 236 212 199 189 178 163 150 137 129 120 114 101 93 82 93 138 140 143 150 158 155 162 128 110 94 79 64 49 63 63 64 74 87 89 87
233 235 239 242 246 247 242 235 239 217 198 194 187 176 165 152 145 137 130 116 102 88 78 96 117 125 140 139 148 136 132 115 99 93 78 64 64 67 72 84 92 98 104
236 237 240 242 241 248 245 232 227 201 195 193 185 182 175 166 159 154 145 135 124 111 97 88 85 111 118 122 131 141 138 128 93 91 95 84 76 74 71 76 98 102 104
240 243 244 246 250 255 249 224 221 200 191 185 185 188 187 182 175 176 168 154 144 139 122 108 102 102 119 117 122 159 155 147 133 106 126 101 97 92 54 59 89 110 110
Height
819 818 817 817 815 815 814 814 812 811 810 810 810 809 809 809 810 812 812 813 814 813 812 812 812 812 811 810 809 808 809 808 809 811 813 815 817 820 824 826 829 831 833
819 818 817 816 816 815 814 813 812 810 809 809 809 809 810 811 811 813 813 813 814 812 811 812 813 813 812 811 809 809 808 809 810 810 812 813 815 818 821 824 826 828 831
820 819 817 816 815 813 813 812 811 810 809 809 810 810 811 813 814 814 813 813 813 813 812 813 813 813 812 811 810 810 809 809 809 810 811 812 813 814 817 820 821 824 827
819 818 818 816 813 812 812 811 810 809 808 808 807 810 811 812 812 812 812 813 814 813 813 813 813 813 812 812 811 811 810 809 809 810 809 809 810 811 812 815 816 819 822
819 818 818 816 814 812 812 810 809 807 806 806 807 809 810 810 812 814 813 813 813 813 812 811 811 811 811 811 811 810 809 808 807 807 807 807 807 808 810 810 813 814 817
819 819 818 818 816 814 812 810 809 808 807 807 805 806 811 811 810 812 812 811 810 811 810 810 810 810 810 810 809 809 808 806 804 803 804 804 803 804 806 807 809 812 815
819 819 819 817 816 815 814 812 810 808 807 806 805 806 808 809 808 808 807 806 808 808 808 810 810 810 810 810 807 805 805 803 802 802 801 800 801 801 801 802 804 807 810
820 819 819 818 817 817 815 813 811 810 809 808 807 807 810 812 809 806 806 804 806 806 806 808 809 809 808 808 808 805 804 801 800 800 799 798 797 797 797 797 798 801 805
820 819 819 818 817 816 816 815 813 811 811 811 810 807 813 815 808 805 806 808 807 806 806 806 806 807 809 809 812 808 804 801 799 798 797 796 795 794 793 793 793 795 799
820 819 819 817 817 817 817 817 815 813 811 811 811 810 809 806 807 810 807 805 804 804 804 806 807 807 809 810 810 809 807 804 798 796 795 794 793 792 791 790 790 792 796
820 819 819 817 817 817 817 816 815 814 812 812 811 811 809 808 805 808 810 807 804 800 803 805 805 809 810 813 812 809 807 805 797 795 793 793 792 790 789 787 788 789 793
819 819 819 818 817 817 816 816 815 814 813 812 812 809 808 807 807 807 810 807 806 806 803 803 806 809 810 812 811 810 808 802 798 795 793 791 790 788 787 786 786 789 792
818 817 818 818 817 816 816 816 815 814 814 813 811 809 808 806 806 806 806 808 806 807 808 807 809 809 810 810 810 810 807 802 799 795 793 790 789 787 785 783 784 786 789
817 816 817 818 817 816 816 816 815 815 815 814 811 809 808 807 807 805 805 804 807 806 808 809 811 811 812 811 811 809 806 803 800 796 793 790 787 785 784 782 782 783 783
817 818 817 817 817 817 817 816 815 815 815 814 812 810 808 808 807 806 806 804 802 809 809 809 811 811 811 812 811 809 807 806 802 798 794 791 788 784 782 778 776 774 774
817 817 818 817 817 817 816 816 815 814 813 813 812 811 809 808 808 806 806 805 803 803 808 809 809 809 811 811 812 810 809 807 804 799 795 792 788 783 779 774 766 756 751
815 815 816 816 816 816 816 815 814 813 812 812 812 811 810 810 808 807 806 805 804 803 805 808 808 810 810 811 812 811 810 808 805 801 797 793 788 783 777 766 753 741 731
813 813 814 814 814 815 814 813 813 811 810 810 810 811 810 811 810 808 806 804 803 803 805 808 810 811 812 812 812 811 810 809 806 803 800 796 790 784 778 766 758 743 744
810 810 810 810 811 812 812 811 811 810 810 810 810 810 810 811 811 809 807 804 803 804 806 808 811 811 812 813 813 813 811 810 808 805 802 798 793 788 782 773 764 746 753
806 805 805 807 807 809 809 809 809 809 809 809 809 810 810 810 811 810 807 807 806 807 809 810 812 813 814 815 815 815 814 812 809 807 805 802 797 792 789 780 772 762 762
800 802 800 802 803 804 805 805 806 807 807 808 809 810 810 810 811 811 809 809 810 809 810 812 812 814 814 816 816 816 816 815 812 810 808 804 801 796 794 790 787 780 776
795 798 796 797 799 799 801 802 802 804 805 806 808 811 812 813 813 814 813 814 813 812 812 813 813 814 814 815 817 818 817 818 816 815 813 813 808 804 803 799 798 795 794
790 792 793 792 794 795 797 799 799 800 802 804 806 810 813 815 816 817 817 816 816 815 814 812 813 814 815 816 817 820 820 819 819 820 818 817 816 811 810 810 811 811 812
784 786 787 788 789 790 793 796 797 797 800 802 804 808 811 814 815 817 818 818 818 818 818 816 816 816 817 818 819 819 823 822 822 822 821 823 824 822 820 819 822 824 824
780 781 781 782 783 785 788 792 794 796 797 800 804 808 812 813 815 816 818 819 820 820 820 820 819 818 819 820 820 821 823 824 825 826 826 828 829 828 828 828 829 831 832
775 776 776 778 779 782 785 788 790 792 794 797 802 808 811 812 815 817 818 819 821 822 821 821 821 821 822 822 823 824 825 826 826 828 828 829 831 831 834 837 837 840 841